Location: Aufkirchen
(47.9603°N, 11.3653°E)
Time: 14:23:44
(UTC+01:00)

Transit 2A Rocket - Pass Details

Date: 09 December 2020
Orbit: 592 x 910 km, 66.7° (Epoch: 21 January)

Event Time Altitude Azimuth Distance (km) Brightness Sun altitude
Rises 02:32:23 0° 277° (W) 3,410 - -51.7°
Reaches altitude 10° 02:36:03 10° 300° (WNW) 2,414 - -51.2°
Maximum altitude 02:39:11 15° 334° (NNW) 2,019 - -50.7°
Drops below altitude 10° 02:42:12 10° 9° (N) 2,295 - -50.3°
Sets 02:45:34 0° 33° (NNE) 3,148 - -49.8°
Exits shadow 02:45:41 - 34° (NNE) 3,183 8.7 -49.7°
